• In Hungary
  • List of Countries
  • For 7 days
  • Water Temperature
  • Satellite Maps
  • Weather Map
  • News
  • Weather Widgets
  • user-avatar
    Login

    Hourly Weather Peshawar

    Today, 21 November, Tuesday

    Time Temperature Precipitation Wind Pressure Humidity
    00:00 +22°C° 0 mm 3 mps 758 mmHg 17%
    01:00 +22°C° 0 mm 3 mps 758 mmHg 17%
    02:00 +21°C° 0 mm 3 mps 758 mmHg 18%
    03:00 +21°C° 0 mm 3 mps 758 mmHg 18%
    04:00 +21°C° 0 mm 3 mps 758 mmHg 18%
    05:00 +21°C° 0 mm 3 mps 758 mmHg 17%
    06:00 +21°C° 0 mm 3 mps 758 mmHg 17%
    07:00 +21°C° 0 mm 3 mps 759 mmHg 17%
    08:00 +24°C° 0 mm 3 mps 759 mmHg 15%
    09:00 +26°C° 0 mm 3 mps 759 mmHg 14%
    10:00 +28°C° 0 mm 3 mps 759 mmHg 12%
    11:00 +28°C° 0 mm 3 mps 758 mmHg 12%
    12:00 +29°C° 0 mm 2 mps 758 mmHg 11%
    13:00 +30°C° 0 mm 2 mps 757 mmHg 10%
    14:00 +29°C° 0 mm 2 mps 757 mmHg 10%
    15:00 +29°C° 0 mm 2 mps 756 mmHg 10%
    16:00 +29°C° 0 mm 3 mps 756 mmHg 11%
    17:00 +28°C° 0 mm 2 mps 756 mmHg 14%
    18:00 +26°C° 0 mm 2 mps 757 mmHg 16%
    19:00 +25°C° 0 mm 2 mps 757 mmHg 18%
    20:00 +25°C° 0 mm 2 mps 757 mmHg 19%
    21:00 +24°C° 0 mm 2 mps 757 mmHg 19%
    22:00 +24°C° 0 mm 2 mps 757 mmHg 20%
    23:00 +23°C° 0 mm 2 mps 756 mmHg 20%

    Tomorrow, 22 November, Wednesday

    Time Temperature Precipitation Wind Pressure Humidity
    00:00 +23°C° 0 mm 2 mps 756 mmHg 19%
    01:00 +23°C° 0 mm 2 mps 756 mmHg 19%
    02:00 +21°C° 0 mm 2 mps 756 mmHg 19%
    03:00 +21°C° 0 mm 3 mps 756 mmHg 18%
    04:00 +21°C° 0 mm 3 mps 756 mmHg 18%
    05:00 +21°C° 0 mm 3 mps 756 mmHg 17%
    06:00 +21°C° 0 mm 3 mps 757 mmHg 16%
    07:00 +21°C° 0 mm 3 mps 757 mmHg 16%
    08:00 +23°C° 0 mm 4 mps 757 mmHg 14%
    09:00 +26°C° 0 mm 4 mps 758 mmHg 12%
    10:00 +28°C° 0 mm 5 mps 758 mmHg 11%
    11:00 +29°C° 0 mm 5 mps 757 mmHg 10%
    12:00 +30°C° 0 mm 5 mps 757 mmHg 9%
    13:00 +30°C° 0 mm 4 mps 756 mmHg 8%
    14:00 +30°C° 0 mm 4 mps 756 mmHg 8%
    15:00 +30°C° 0 mm 4 mps 756 mmHg 9%
    16:00 +30°C° 0 mm 4 mps 756 mmHg 9%
    17:00 +28°C° 0 mm 4 mps 756 mmHg 10%
    18:00 +27°C° 0 mm 3 mps 756 mmHg 11%
    19:00 +26°C° 0 mm 3 mps 757 mmHg 12%
    20:00 +25°C° 0 mm 3 mps 756 mmHg 12%
    21:00 +25°C° 0 mm 4 mps 756 mmHg 13%
    22:00 +23°C° 0 mm 4 mps 756 mmHg 13%
    23:00 +23°C° 0 mm 4 mps 756 mmHg 13%

    Day after tomorrow, 23 November, Thursday

    Time Temperature Precipitation Wind Pressure Humidity
    00:00 +23°C° 0 mm 4 mps 756 mmHg 13%
    01:00 +22°C° 0 mm 4 mps 755 mmHg 13%
    02:00 +22°C° 0 mm 4 mps 755 mmHg 14%
    03:00 +22°C° 0 mm 4 mps 755 mmHg 14%
    04:00 +21°C° 0 mm 4 mps 755 mmHg 14%
    05:00 +21°C° 0 mm 4 mps 755 mmHg 14%
    06:00 +22°C° 0 mm 3 mps 756 mmHg 14%
    07:00 +22°C° 0 mm 3 mps 756 mmHg 14%
    08:00 +25°C° 0 mm 3 mps 757 mmHg 12%
    09:00 +27°C° 0 mm 3 mps 757 mmHg 11%
    10:00 +29°C° 0 mm 3 mps 757 mmHg 9%
    11:00 +29°C° 0 mm 3 mps 756 mmHg 8%
    12:00 +30°C° 0 mm 2 mps 756 mmHg 8%
    13:00 +31°C° 0 mm 1 mps 755 mmHg 7%
    14:00 +30°C° 0 mm 2 mps 755 mmHg 8%
    15:00 +30°C° 0 mm 2 mps 755 mmHg 8%
    16:00 +30°C° 0 mm 2 mps 755 mmHg 9%
    17:00 +29°C° 0 mm 2 mps 755 mmHg 11%
    18:00 +27°C° 0 mm 2 mps 755 mmHg 13%
    19:00 +26°C° 0 mm 2 mps 756 mmHg 15%
    20:00 +25°C° 0 mm 2 mps 756 mmHg 16%
    21:00 +25°C° 0 mm 2 mps 756 mmHg 17%
    22:00 +24°C° 0 mm 2 mps 756 mmHg 18%
    23:00 +24°C° 0 mm 2 mps 756 mmHg 19%

    24 November, Friday

    Time Temperature Precipitation Wind Pressure Humidity
    00:00 +23°C° 0 mm 2 mps 756 mmHg 20%
    01:00 +23°C° 0 mm 2 mps 756 mmHg 20%
    02:00 +23°C° 0 mm 2 mps 755 mmHg 20%
    03:00 +21°C° 0 mm 2 mps 755 mmHg 21%
    04:00 +21°C° 0 mm 2 mps 755 mmHg 21%
    05:00 +21°C° 0 mm 2 mps 756 mmHg 19%
    06:00 +23°C° 0 mm 2 mps 756 mmHg 18%
    07:00 +23°C° 0 mm 2 mps 757 mmHg 16%
    08:00 +25°C° 0 mm 1 mps 757 mmHg 14%
    09:00 +27°C° 0 mm 1 mps 757 mmHg 11%
    10:00 +29°C° 0 mm 1 mps 758 mmHg 9%
    11:00 +30°C° 0 mm 1 mps 757 mmHg 8%
    12:00 +31°C° 0 mm 1 mps 756 mmHg 8%
    13:00 +31°C° 0 mm 1 mps 756 mmHg 7%
    14:00 +31°C° 0 mm 1 mps 756 mmHg 8%
    15:00 +31°C° 0 mm 2 mps 756 mmHg 9%
    16:00 +30°C° 0 mm 2 mps 755 mmHg 9%
    17:00 +29°C° 0 mm 2 mps 756 mmHg 13%
    18:00 +28°C° 0 mm 2 mps 756 mmHg 16%
    19:00 +26°C° 0 mm 2 mps 757 mmHg 20%
    20:00 +26°C° 0 mm 2 mps 757 mmHg 21%
    21:00 +25°C° 0 mm 2 mps 757 mmHg 22%
    22:00 +25°C° 0 mm 2 mps 757 mmHg 23%
    23:00 +25°C° 0 mm 2 mps 757 mmHg 24%

    25 November, Saturday

    Time Temperature Precipitation Wind Pressure Humidity
    00:00 +24°C° 0 mm 2 mps 756 mmHg 24%
    01:00 +24°C° 0 mm 2 mps 756 mmHg 25%
    02:00 +23°C° 0 mm 2 mps 756 mmHg 25%
    03:00 +23°C° 0 mm 2 mps 756 mmHg 26%
    04:00 +23°C° 0 mm 2 mps 756 mmHg 26%
    05:00 +23°C° 0 mm 1 mps 757 mmHg 25%
    06:00 +23°C° 0 mm 1 mps 757 mmHg 24%
    07:00 +24°C° 0 mm 1 mps 758 mmHg 23%
    08:00 +26°C° 0 mm 1 mps 758 mmHg 20%
    09:00 +28°C° 0 mm 1 mps 758 mmHg 16%
    10:00 +30°C° 0 mm 1 mps 758 mmHg 13%
    11:00 +31°C° 0 mm 1 mps 757 mmHg 12%
    12:00 +31°C° 0 mm 2 mps 757 mmHg 12%
    13:00 +33°C° 0 mm 3 mps 756 mmHg 11%
    14:00 +33°C° 0 mm 3 mps 756 mmHg 13%
    15:00 +31°C° 0 mm 3 mps 756 mmHg 14%
    16:00 +31°C° 0 mm 3 mps 756 mmHg 16%
    17:00 +30°C° 0 mm 3 mps 756 mmHg 22%
    18:00 +28°C° 0 mm 3 mps 756 mmHg 28%
    19:00 +27°C° 0 mm 3 mps 757 mmHg 34%
    20:00 +26°C° 0 mm 3 mps 757 mmHg 38%
    21:00 +26°C° 0 mm 2 mps 757 mmHg 42%
    22:00 +25°C° 0 mm 2 mps 757 mmHg 46%
    23:00 +25°C° 0 mm 2 mps 757 mmHg 51%

    26 November, Sunday

    Time Temperature Precipitation Wind Pressure Humidity
    00:00 +25°C° 0 mm 2 mps 757 mmHg 56%
    01:00 +25°C° 0 mm 3 mps 756 mmHg 61%
    02:00 +24°C° 0 mm 3 mps 757 mmHg 64%
    03:00 +24°C° 0 mm 3 mps 757 mmHg 68%
    04:00 +24°C° 0 mm 2 mps 757 mmHg 72%
    05:00 +24°C° 0 mm 2 mps 757 mmHg 68%
    06:00 +25°C° 0 mm 2 mps 758 mmHg 65%
    07:00 +25°C° 0 mm 2 mps 758 mmHg 62%
    08:00 +27°C° 0 mm 2 mps 758 mmHg 50%
    09:00 +29°C° 0 mm 2 mps 758 mmHg 38%
    10:00 +31°C° 0 mm 2 mps 758 mmHg 25%
    11:00 +32°C° 0 mm 2 mps 757 mmHg 21%
    12:00 +32°C° 0 mm 2 mps 757 mmHg 17%
    13:00 +34°C° 0 mm 2 mps 756 mmHg 13%
    14:00 +34°C° 0 mm 2 mps 756 mmHg 14%
    15:00 +34°C° 0 mm 2 mps 756 mmHg 15%
    16:00 +33°C° 0 mm 3 mps 756 mmHg 16%
    17:00 +31°C° 0 mm 3 mps 756 mmHg 19%
    18:00 +30°C° 0 mm 2 mps 757 mmHg 22%
    19:00 +28°C° 0 mm 2 mps 757 mmHg 26%
    20:00 +28°C° 0 mm 2 mps 757 mmHg 25%
    21:00 +27°C° 0 mm 2 mps 757 mmHg 25%
    22:00 +26°C° 0 mm 2 mps 757 mmHg 25%
    23:00 +26°C° 0 mm 2 mps 757 mmHg 24%
    Show more